Find Orbcomm B2

NORAD ID: 25419 Int'l Des: 1998-046 Owner: ORBC Country: US Constellation: orbcomm operational
LEOCIRCULAR

リアルタイム位置

3D地球を読み込み中...

Orbcomm B2について

説明を読み込み中...

次回通過

Passes for default location (London). Set your location on the main map for personalized predictions.

高度履歴

Loading altitude history...

軌道要素

1 25419U 98046G 26105.91760548 .00000476 00000-0 19483-3 0 9997
2 25419 44.9946 177.4041 0002041 324.0220 36.0492 14.40001764447830
Epoch: Apr 15, 2026 • Age: 7 hours

現在のステータス

高度 762.2 km
速度 7.48 km/s
衛星直下点 38.56°N, 20.69°E
打ち上げ日 Aug 2, 1998
運用期間 27.7 years
タイプ other

技術仕様

分類 Payload
質量 42.00 kg
乾燥質量 42.00 kg
総質量 42.00 kg
長さ 0.20 m
直径 1.00 m
スパン 4.30 m
形状 Cyl + 2 Pan + Ant
製造者 OSCG
バスタイプ Microstar
フェーズステータス Unknown Transfer Status
所有者/国 ORBC/US

Most Searched